| time (UTC) | temp C | wind direction | speed KPH | gust KPH | rain 1hr cm | rain 24hr cm | rain mn cm | humidity % | barometer mb |
| 20260507160129 | 11 | 206 | 4.8 | 11.3 | 0.03 | 0.86 | 0.03 | 43 | 982.2 |
| 20260507155628 | 11 | 183 | 4.8 | 14.5 | 0.00 | 0.84 | 0.03 | 43 | 982.2 |
| 20260507155129 | 10 | 207 | 6.4 | 14.5 | 0.00 | 0.84 | 0.00 | 42 | 982.2 |
| 20260507154634 | 10 | 223 | 6.4 | 14.5 | 0.00 | 0.84 | 0.00 | 44 | 982.1 |
| 20260507154629 | 10 | 222 | 6.4 | 12.9 | 0.00 | 0.84 | 0.00 | 43 | 982.1 |
| 20260507153629 | 10 | 238 | 6.4 | 14.5 | 0.00 | 0.84 | 0.00 | 43 | 982.2 |
| 20260507153127 | 10 | 221 | 6.4 | 12.9 | 0.00 | 0.84 | 0.00 | 43 | 982.2 |
| 20260507152627 | 10 | 229 | 6.4 | 12.9 | 0.00 | 0.84 | 0.00 | 42 | 982.2 |
| 20260507152127 | 9 | 205 | 6.4 | 12.9 | 0.00 | 0.84 | 0.00 | 43 | 982.1 |
| 20260507151627 | 9 | 212 | 6.4 | 12.9 | 0.00 | 0.84 | 0.00 | 43 | 982.1 |
| 20260507151127 | 9 | 203 | 6.4 | 12.9 | 0.00 | 0.84 | 0.00 | 44 | 982.0 |
| 20260507150632 | 8 | 242 | 4.8 | 14.5 | 0.00 | 0.84 | 0.00 | 43 | 982.2 |
| 20260507150627 | 8 | 221 | 6.4 | 14.5 | 0.00 | 0.84 | 0.00 | 42 | 982.1 |
| 20260507150126 | 8 | 214 | 6.4 | 14.5 | 0.00 | 0.84 | 0.00 | 43 | 982.2 |
| 20260507145732 | 8 | 213 | 3.2 | 12.9 | 0.00 | 0.84 | 0.00 | 44 | 982.2 |
| 20260507144627 | 7 | 206 | 4.8 | 11.3 | 0.00 | 0.84 | 0.00 | 44 | 982.2 |
| 20260507144126 | 7 | 169 | 6.4 | 11.3 | 0.00 | 0.84 | 0.00 | 47 | 982.2 |
| 20260507143626 | 7 | 236 | 4.8 | 9.7 | 0.00 | 0.84 | 0.00 | 47 | 982.2 |
| 20260507143130 | 6 | 193 | 4.8 | 12.9 | 0.00 | 0.84 | 0.00 | 50 | 982.1 |
| 20260507143126 | 7 | 211 | 4.8 | 11.3 | 0.00 | 0.84 | 0.00 | 49 | 982.1 |
| 20260507142126 | 6 | 231 | 4.8 | 12.9 | 0.00 | 0.84 | 0.00 | 50 | 982.1 |
| 20260507141625 | 6 | 178 | 3.2 | 11.3 | 0.00 | 0.84 | 0.00 | 49 | 982.2 |
| 20260507141125 | 5 | 196 | 3.2 | 9.7 | 0.00 | 0.84 | 0.00 | 49 | 982.4 |
| 20260507140622 | 5 | 242 | 3.2 | 9.7 | 0.00 | 0.84 | 0.00 | 50 | 982.2 |
| 20260507140123 | 5 | 237 | 3.2 | 9.7 | 0.00 | 0.84 | 0.00 | 51 | 982.2 |
| 20260507135623 | 4 | 229 | 1.6 | 9.7 | 0.00 | 0.84 | 0.00 | 53 | 982.2 |
| 20260507135123 | 2 | 198 | 0.0 | 3.2 | 0.00 | 0.84 | 0.00 | 61 | 982.1 |
| 20260507134623 | 2 | 179 | 0.0 | 0.0 | 0.00 | 0.84 | 0.00 | 66 | 982.0 |
| 20260507134128 | 1 | 192 | 0.0 | 1.6 | 0.00 | 0.84 | 0.00 | 64 | 982.1 |
| 20260507134122 | 1 | 193 | 0.0 | 0.0 | 0.00 | 0.84 | 0.00 | 66 | 982.0 |
| 20260507133619 | 1 | 193 | 0.0 | 0.0 | 0.00 | 0.84 | 0.00 | 65 | 982.0 |
| 20260507132618 | 1 | 203 | 0.0 | 1.6 | 0.00 | 0.84 | 0.00 | 63 | 982.1 |
| 20260507132117 | 1 | 124 | 0.0 | 0.0 | 0.00 | 0.84 | 0.00 | 61 | 982.0 |
| 20260507131616 | 1 | 124 | 0.0 | 0.0 | 0.00 | 0.84 | 0.00 | 60 | 982.0 |
| 20260507131116 | 2 | 124 | 0.0 | 0.0 | 0.00 | 0.84 | 0.00 | 59 | 982.0 |
| 20260507130616 | 2 | 120 | 0.0 | 1.6 | 0.00 | 0.84 | 0.00 | 56 | 981.9 |
| 20260507130116 | 3 | 119 | 0.0 | 3.2 | 0.00 | 0.84 | 0.00 | 53 | 981.9 |
| 20260507125616 | 3 | 134 | 0.0 | 3.2 | 0.00 | 0.84 | 0.00 | 46 | 981.9 |
| 20260507125116 | 3 | 261 | 1.6 | 4.8 | 0.00 | 0.84 | 0.00 | 46 | 981.8 |
| 20260507124616 | 3 | 248 | 1.6 | 11.3 | 0.00 | 0.84 | 0.00 | 47 | 981.8 |
| 20260507124116 | 3 | 221 | 1.6 | 11.3 | 0.00 | 0.84 | 0.00 | 47 | 981.5 |
| 20260507123620 | 1 | 162 | 0.0 | 4.8 | 0.00 | 0.84 | 0.00 | 53 | 981.4 |
| 20260507123616 | 3 | 222 | 1.6 | 8.0 | 0.00 | 0.84 | 0.00 | 48 | 981.5 |
| 20260507123114 | 2 | 199 | 0.0 | 8.0 | 0.00 | 0.84 | 0.00 | 50 | 981.4 |
| 20260507122720 | 1 | 202 | 0.0 | 4.8 | 0.00 | 0.84 | 0.00 | 57 | 981.4 |
| 20260507121618 | 0 | 245 | 0.0 | 0.0 | 0.00 | 0.84 | 0.00 | 65 | 981.4 |
| 20260507121614 | 0 | 227 | 0.0 | 4.8 | 0.00 | 0.84 | 0.00 | 59 | 981.4 |
| 20260507120614 | 0 | 316 | 0.0 | 0.0 | 0.00 | 0.84 | 0.00 | 64 | 981.3 |
| 20260507120114 | 0 | 224 | 0.0 | 0.0 | 0.00 | 0.84 | 0.00 | 63 | 981.3 |
| 20260507115614 | 0 | 148 | 0.0 | 0.0 | 0.00 | 0.84 | 0.00 | 63 | 981.3 |
| 20260507115114 | 0 | 39 | 0.0 | 0.0 | 0.00 | 0.84 | 0.00 | 61 | 981.4 |
| 20260507114615 | 0 | 39 | 0.0 | 0.0 | 0.00 | 0.84 | 0.00 | 58 | 981.4 |
| 20260507114118 | 2 | 235 | 3.2 | 8.0 | 0.00 | 0.84 | 0.00 | 49 | 981.4 |
| 20260507114112 | 2 | 72 | 0.0 | 6.4 | 0.00 | 0.84 | 0.00 | 54 | 981.4 |
| 20260507113612 | 2 | 56 | 1.6 | 8.0 | 0.00 | 0.84 | 0.00 | 49 | 981.3 |
| 20260507112612 | 2 | 214 | 3.2 | 8.0 | 0.00 | 0.84 | 0.00 | 51 | 981.4 |
| 20260507112112 | 1 | 233 | 1.6 | 8.0 | 0.00 | 0.84 | 0.00 | 55 | 981.4 |
| 20260507111612 | -1 | 160 | 0.0 | 4.8 | 0.00 | 0.84 | 0.00 | 65 | 981.4 |
| 20260507111112 | -1 | 18 | 0.0 | 1.6 | 0.00 | 0.84 | 0.00 | 71 | 981.3 |
| 20260507110616 | -2 | 219 | 0.0 | 0.0 | 0.00 | 0.84 | 0.00 | 69 | 981.3 |
| 20260507110612 | -2 | 219 | 0.0 | 0.0 | 0.00 | 0.84 | 0.00 | 70 | 981.3 |
| 20260507110217 | -1 | 219 | 0.0 | 0.0 | 0.00 | 0.84 | 0.00 | 68 | 981.4 |
| 20260507105715 | -1 | 219 | 0.0 | 0.0 | 0.00 | 0.84 | 0.00 | 69 | 981.3 |
| 20260507104610 | -1 | 219 | 0.0 | 0.0 | 0.00 | 0.84 | 0.00 | 66 | 981.3 |
| 20260507104110 | 0 | 219 | 0.0 | 0.0 | 0.00 | 0.84 | 0.00 | 64 | 981.4 |
| 20260507103610 | 0 | 235 | 0.0 | 0.0 | 0.00 | 0.84 | 0.00 | 61 | 981.4 |
| 20260507103110 | 1 | 235 | 0.0 | 0.0 | 0.00 | 0.84 | 0.00 | 58 | 981.3 |
| 20260507102610 | 1 | 235 | 0.0 | 0.0 | 0.00 | 0.84 | 0.00 | 55 | 981.4 |
| 20260507102110 | 2 | 238 | 0.0 | 1.6 | 0.00 | 0.84 | 0.00 | 51 | 981.4 |
| 20260507101610 | 2 | 212 | 0.0 | 3.2 | 0.00 | 0.84 | 0.00 | 52 | 981.4 |
| 20260507101117 | 3 | 269 | 3.2 | 6.4 | 0.00 | 0.84 | 0.00 | 46 | 981.5 |
| 20260507101110 | 3 | 162 | 0.0 | 4.8 | 0.00 | 0.84 | 0.00 | 46 | 981.5 |
| 20260507100610 | 3 | 214 | 1.6 | 6.4 | 0.00 | 0.84 | 0.00 | 45 | 981.5 |
| 20260507100216 | 3 | 202 | 4.8 | 12.9 | 0.00 | 0.84 | 0.00 | 47 | 981.5 |
| 20260507095610 | 3 | 191 | 3.2 | 8.0 | 0.00 | 0.84 | 0.00 | 47 | 981.4 |
| 20260507094608 | 3 | 157 | 4.8 | 12.9 | 0.00 | 0.84 | 0.00 | 48 | 981.5 |
| 20260507094108 | 3 | 206 | 4.8 | 12.9 | 0.00 | 0.84 | 0.00 | 47 | 981.7 |
| 20260507093606 | 3 | 248 | 3.2 | 9.7 | 0.00 | 0.84 | 0.00 | 47 | 981.8 |
| 20260507093106 | 3 | 221 | 3.2 | 9.7 | 0.00 | 0.84 | 0.00 | 47 | 981.7 |
| 20260507092610 | 2 | 235 | 3.2 | 8.0 | 0.00 | 0.84 | 0.00 | 48 | 981.5 |
| 20260507092606 | 2 | 230 | 3.2 | 9.7 | 0.00 | 0.84 | 0.00 | 48 | 981.7 |
| 20260507092216 | 2 | 198 | 3.2 | 9.7 | 0.00 | 0.84 | 0.00 | 50 | 981.8 |
| 20260507092212 | 2 | 184 | 3.2 | 8.0 | 0.00 | 0.84 | 0.00 | 49 | 981.8 |
| 20260507090609 | 2 | 198 | 3.2 | 8.0 | 0.00 | 0.84 | 0.00 | 52 | 981.8 |
| 20260507090605 | 2 | 225 | 3.2 | 9.7 | 0.00 | 0.84 | 0.00 | 50 | 981.8 |
| 20260507085606 | 2 | 221 | 4.8 | 8.0 | 0.00 | 0.84 | 0.00 | 53 | 981.8 |
| 20260507085104 | 1 | 223 | 3.2 | 8.0 | 0.00 | 0.84 | 0.00 | 55 | 981.8 |
| 20260507084608 | 1 | 230 | 1.6 | 9.7 | 0.00 | 0.84 | 0.00 | 58 | 982.0 |
| 20260507084604 | 1 | 180 | 3.2 | 9.7 | 0.00 | 0.84 | 0.00 | 57 | 981.9 |
| 20260507083603 | 1 | 245 | 0.0 | 6.4 | 0.00 | 0.84 | 0.00 | 58 | 982.0 |
| 20260507083107 | 1 | 243 | 1.6 | 6.4 | 0.00 | 0.84 | 0.00 | 60 | 981.9 |
| 20260507083103 | 1 | 256 | 0.0 | 3.2 | 0.00 | 0.84 | 0.00 | 59 | 982.0 |
| 20260507082104 | 0 | 198 | 1.6 | 6.4 | 0.00 | 0.84 | 0.00 | 62 | 981.9 |
| 20260507081604 | 0 | 205 | 1.6 | 4.8 | 0.00 | 0.84 | 0.00 | 64 | 981.9 |
| 20260507081104 | 0 | 231 | 1.6 | 4.8 | 0.00 | 0.84 | 0.00 | 67 | 982.0 |
| 20260507080601 | 0 | 210 | 0.0 | 4.8 | 0.00 | 0.84 | 0.00 | 71 | 982.0 |
| 20260507075602 | -2 | 224 | 0.0 | 1.6 | 0.00 | 0.84 | 0.00 | 85 | 982.1 |
| 20260507075102 | -3 | 160 | 0.0 | 1.6 | 0.00 | 0.84 | 0.00 | 89 | 982.1 |
| 20260507074607 | -4 | 183 | 0.0 | 0.0 | 0.00 | 0.84 | 0.00 | 87 | 982.5 |
| 20260507074602 | -4 | 183 | 0.0 | 0.0 | 0.00 | 0.84 | 0.00 | 88 | 982.2 |
| 20260507074101 | -4 | 183 | 0.0 | 0.0 | 0.00 | 0.84 | 0.00 | 88 | 982.5 |
| 20260507073707 | -3 | 183 | 0.0 | 0.0 | 0.00 | 0.84 | 0.00 | 87 | 982.5 |
| 20260507073101 | -3 | 183 | 0.0 | 0.0 | 0.00 | 0.84 | 0.00 | 87 | 982.5 |
| 20260507072101 | -3 | 183 | 0.0 | 0.0 | 0.00 | 0.84 | 0.00 | 86 | 982.5 |
| 20260507071601 | -3 | 183 | 0.0 | 0.0 | 0.00 | 0.84 | 0.00 | 87 | 982.5 |
| 20260507071105 | -3 | 183 | 0.0 | 0.0 | 0.00 | 0.84 | 0.00 | 88 | 982.5 |
| 20260507071101 | -3 | 183 | 0.0 | 0.0 | 0.00 | 0.84 | 0.00 | 88 | 982.5 |
| 20260507065601 | -3 | 184 | 0.0 | 0.0 | 0.00 | 0.84 | 0.00 | 89 | 982.6 |
| 20260507065106 | -3 | 184 | 0.0 | 0.0 | 0.00 | 0.84 | 0.00 | 89 | 982.6 |
| 20260507065102 | -3 | 184 | 0.0 | 0.0 | 0.00 | 0.84 | 0.00 | 89 | 982.5 |
| 20260507064101 | -3 | 184 | 0.0 | 0.0 | 0.00 | 0.84 | 0.00 | 90 | 982.7 |
| 20260507063601 | -3 | 184 | 0.0 | 0.0 | 0.00 | 0.84 | 0.00 | 90 | 982.6 |
| 20260507063101 | -3 | 184 | 0.0 | 0.0 | 0.00 | 0.84 | 0.00 | 89 | 982.6 |
| 20260507062601 | -3 | 184 | 0.0 | 0.0 | 0.00 | 0.84 | 0.00 | 88 | 982.5 |
| 20260507062107 | -3 | 184 | 0.0 | 0.0 | 0.00 | 0.84 | 0.00 | 90 | 982.5 |
| 20260507062101 | -3 | 184 | 0.0 | 0.0 | 0.00 | 0.84 | 0.00 | 89 | 982.5 |
| 20260507061602 | -3 | 184 | 0.0 | 0.0 | 0.00 | 0.84 | 0.00 | 89 | 982.5 |
| 20260507060601 | -3 | 184 | 0.0 | 0.0 | 0.00 | 0.84 | 0.00 | 90 | 982.6 |
| 20260507055604 | -3 | 202 | 0.0 | 0.0 | 0.00 | 0.84 | 0.84 | 90 | 982.6 |
| 20260507055600 | -3 | 201 | 0.0 | 0.0 | 0.00 | 0.84 | 0.84 | 90 | 982.5 |
| 20260507054605 | -3 | 202 | 0.0 | 0.0 | 0.00 | 0.84 | 0.84 | 88 | 982.5 |
| 20260507054600 | -3 | 202 | 0.0 | 0.0 | 0.00 | 0.84 | 0.84 | 90 | 982.6 |
| 20260507054100 | -3 | 202 | 0.0 | 0.0 | 0.00 | 0.84 | 0.84 | 89 | 982.5 |
| 20260507053100 | -2 | 202 | 0.0 | 0.0 | 0.00 | 0.84 | 0.84 | 88 | 982.5 |
| 20260507052600 | -2 | 202 | 0.0 | 0.0 | 0.00 | 0.84 | 0.84 | 88 | 982.5 |
| 20260507052059 | -2 | 202 | 0.0 | 0.0 | 0.00 | 0.84 | 0.84 | 87 | 982.4 |
| 20260507051600 | -2 | 202 | 0.0 | 0.0 | 0.00 | 0.84 | 0.84 | 87 | 982.4 |
| 20260507051100 | -2 | 202 | 0.0 | 0.0 | 0.00 | 0.84 | 0.84 | 87 | 982.4 |
| 20260507050559 | -2 | 202 | 0.0 | 0.0 | 0.00 | 0.84 | 0.84 | 87 | 982.4 |
| 20260507050057 | -2 | 202 | 0.0 | 0.0 | 0.00 | 0.84 | 0.84 | 87 | 982.4 |
| 20260507045557 | -1 | 202 | 0.0 | 0.0 | 0.00 | 0.84 | 0.84 | 86 | 982.4 |
| 20260507045056 | -1 | 202 | 0.0 | 0.0 | 0.00 | 0.84 | 0.84 | 85 | 982.4 |
| 20260507044600 | -1 | 202 | 0.0 | 0.0 | 0.00 | 0.84 | 0.84 | 85 | 982.4 |
| 20260507044556 | -1 | 202 | 0.0 | 0.0 | 0.00 | 0.84 | 0.84 | 86 | 982.5 |
| 20260507043556 | -1 | 202 | 0.0 | 0.0 | 0.00 | 0.84 | 0.84 | 84 | 982.4 |
| 20260507043055 | -1 | 202 | 0.0 | 0.0 | 0.00 | 0.84 | 0.84 | 83 | 982.2 |
| 20260507042554 | 0 | 202 | 0.0 | 0.0 | 0.00 | 0.84 | 0.84 | 83 | 982.2 |
| 20260507042056 | 0 | 202 | 0.0 | 0.0 | 0.00 | 0.84 | 0.84 | 83 | 982.2 |
| 20260507042052 | 0 | 202 | 0.0 | 0.0 | 0.00 | 0.84 | 0.84 | 83 | 982.1 |
| 20260507041056 | 0 | 202 | 0.0 | 0.0 | 0.00 | 0.84 | 0.84 | 82 | 982.0 |
| 20260507041052 | 0 | 202 | 0.0 | 0.0 | 0.00 | 0.84 | 0.84 | 82 | 982.1 |
| 20260507040052 | 0 | 202 | 0.0 | 0.0 | 0.00 | 0.84 | 0.84 | 81 | 982.1 |
| 20260507035552 | 0 | 201 | 0.0 | 3.2 | 0.00 | 0.84 | 0.84 | 80 | 982.1 |
| 20260507035052 | 0 | 202 | 0.0 | 3.2 | 0.00 | 0.84 | 0.84 | 80 | 982.1 |
| 20260507034550 | 0 | 200 | 0.0 | 4.8 | 0.00 | 0.84 | 0.84 | 80 | 982.0 |
| 20260507034051 | 0 | 194 | 0.0 | 3.2 | 0.00 | 0.84 | 0.84 | 81 | 982.0 |
| 20260507033553 | 0 | 184 | 0.0 | 9.7 | 0.00 | 0.84 | 0.84 | 81 | 982.0 |
| 20260507033050 | 0 | 176 | 0.0 | 9.7 | 0.00 | 0.84 | 0.84 | 82 | 981.9 |
| 20260507032550 | 0 | 167 | 0.0 | 3.2 | 0.00 | 0.84 | 0.84 | 82 | 981.9 |
| 20260507032050 | 0 | 134 | 0.0 | 3.2 | 0.00 | 0.84 | 0.84 | 83 | 981.9 |
| 20260507031550 | 0 | 162 | 0.0 | 1.6 | 0.00 | 0.84 | 0.84 | 83 | 981.9 |
| 20260507031049 | 0 | 196 | 0.0 | 4.8 | 0.00 | 0.84 | 0.84 | 82 | 981.9 |
| 20260507030548 | 0 | 171 | 1.6 | 4.8 | 0.00 | 0.84 | 0.84 | 81 | 981.8 |
| 20260507030052 | 0 | 168 | 4.8 | 8.0 | 0.00 | 0.84 | 0.84 | 81 | 981.7 |
| 20260507030048 | 0 | 176 | 1.6 | 8.0 | 0.00 | 0.84 | 0.84 | 81 | 981.8 |
| 20260507025548 | 0 | 192 | 3.2 | 8.0 | 0.00 | 0.84 | 0.84 | 81 | 981.7 |
| 20260507024548 | 0 | 158 | 4.8 | 11.3 | 0.00 | 0.84 | 0.84 | 80 | 981.7 |
| 20260507024048 | 0 | 165 | 4.8 | 11.3 | 0.00 | 0.84 | 0.84 | 80 | 981.5 |
| 20260507023548 | 0 | 169 | 4.8 | 11.3 | 0.00 | 0.84 | 0.84 | 80 | 981.5 |
| 20260507023048 | 0 | 169 | 4.8 | 11.3 | 0.00 | 0.84 | 0.84 | 81 | 981.5 |
| 20260507022548 | 0 | 173 | 4.8 | 14.5 | 0.00 | 0.84 | 0.84 | 81 | 981.5 |
| 20260507022051 | 1 | 172 | 4.8 | 12.9 | 0.00 | 0.84 | 0.84 | 80 | 981.5 |
| 20260507022047 | 1 | 150 | 4.8 | 14.5 | 0.00 | 0.84 | 0.84 | 80 | 981.5 |
| 20260507021048 | 1 | 188 | 4.8 | 12.9 | 0.00 | 0.84 | 0.84 | 80 | 981.5 |
| 20260507020548 | 1 | 155 | 3.2 | 9.7 | 0.00 | 0.84 | 0.84 | 79 | 981.5 |
| 20260507020048 | 1 | 172 | 3.2 | 9.7 | 0.00 | 0.84 | 0.84 | 79 | 981.7 |
| 20260507015548 | 1 | 154 | 3.2 | 8.0 | 0.00 | 0.84 | 0.84 | 79 | 981.5 |
| 20260507015052 | 1 | 180 | 1.6 | 4.8 | 0.03 | 0.84 | 0.84 | 77 | 981.5 |
| 20260507015048 | 1 | 198 | 1.6 | 8.0 | 0.03 | 0.84 | 0.84 | 78 | 981.5 |
| 20260507014048 | 1 | 141 | 0.0 | 4.8 | 0.03 | 0.84 | 0.84 | 76 | 981.7 |
| 20260507013548 | 1 | 174 | 0.0 | 3.2 | 0.03 | 0.84 | 0.84 | 76 | 981.7 |
| 20260507013046 | 2 | 179 | 0.0 | 3.2 | 0.05 | 0.84 | 0.84 | 75 | 981.5 |
| 20260507012546 | 2 | 135 | 0.0 | 1.6 | 0.05 | 0.84 | 0.84 | 74 | 981.7 |
| 20260507012046 | 2 | 189 | 0.0 | 1.6 | 0.05 | 0.84 | 0.84 | 73 | 981.7 |
| 20260507011552 | 3 | 190 | 0.0 | 1.6 | 0.08 | 0.84 | 0.84 | 70 | 981.7 |
| 20260507011546 | 2 | 163 | 0.0 | 1.6 | 0.08 | 0.84 | 0.84 | 72 | 981.7 |
| 20260507011046 | 3 | 193 | 0.0 | 1.6 | 0.08 | 0.84 | 0.84 | 71 | 981.8 |
| 20260507010046 | 3 | 200 | 0.0 | 3.2 | 0.10 | 0.84 | 0.84 | 67 | 981.7 |
| 20260507005545 | 4 | 136 | 0.0 | 4.8 | 0.10 | 0.84 | 0.84 | 66 | 981.7 |
| 20260507005046 | 4 | 137 | 0.0 | 4.8 | 0.10 | 0.81 | 0.81 | 66 | 981.7 |
| 20260507004546 | 4 | 215 | 1.6 | 6.4 | 0.10 | 0.81 | 0.81 | 67 | 981.8 |
| 20260507004046 | 4 | 148 | 3.2 | 8.0 | 0.13 | 0.81 | 0.81 | 66 | 981.7 |
| 20260507003544 | 4 | 151 | 1.6 | 8.0 | 0.13 | 0.81 | 0.81 | 66 | 981.7 |
| 20260507003044 | 4 | 146 | 0.0 | 6.4 | 0.13 | 0.79 | 0.79 | 65 | 981.7 |
| 20260507002544 | 4 | 169 | 0.0 | 3.2 | 0.15 | 0.79 | 0.79 | 65 | 981.7 |
| 20260507002042 | 4 | 180 | 1.6 | 6.4 | 0.15 | 0.79 | 0.79 | 66 | 981.7 |
| 20260507001546 | 4 | 196 | 0.0 | 6.4 | 0.18 | 0.76 | 0.76 | 64 | 981.8 |
| 20260507001542 | 4 | 160 | 1.6 | 6.4 | 0.15 | 0.76 | 0.76 | 64 | 981.7 |
| 20260507000540 | 4 | 148 | 1.6 | 6.4 | 0.18 | 0.76 | 0.76 | 65 | 981.8 |
| 20260507000040 | 4 | 168 | 1.6 | 6.4 | 0.18 | 0.74 | 0.74 | 63 | 981.8 |
| 20260506235540 | 5 | 169 | 0.0 | 6.4 | 0.18 | 0.74 | 0.74 | 60 | 981.8 |
| 20260506235044 | 5 | 131 | 0.0 | 3.2 | 0.18 | 0.71 | 0.71 | 61 | 981.8 |
| 20260506235040 | 5 | 188 | 0.0 | 3.2 | 0.18 | 0.71 | 0.74 | 62 | 981.8 |
| 20260506234645 | 5 | 136 | 0.0 | 3.2 | 0.18 | 0.69 | 0.69 | 62 | 981.8 |
| 20260506233543 | 5 | 186 | 0.0 | 1.6 | 0.18 | 0.69 | 0.69 | 60 | 981.9 |
| 20260506233539 | 5 | 217 | 0.0 | 1.6 | 0.18 | 0.69 | 0.66 | 61 | 981.9 |
| 20260506232538 | 5 | 142 | 0.0 | 0.0 | 0.15 | 0.66 | 0.64 | 63 | 982.0 |
| 20260506232036 | 5 | 262 | 0.0 | 1.6 | 0.18 | 0.66 | 0.64 | 63 | 982.1 |
| 20260506231536 | 5 | 295 | 0.0 | 1.6 | 0.18 | 0.64 | 0.61 | 63 | 981.9 |
| 20260506231036 | 5 | 111 | 0.0 | 1.6 | 0.15 | 0.61 | 0.61 | 62 | 982.0 |
| 20260506230539 | 4 | 108 | 0.0 | 1.6 | 0.18 | 0.58 | 0.56 | 66 | 981.9 |
| 20260506230535 | 5 | 0 | 0.0 | 1.6 | 0.18 | 0.61 | 0.58 | 65 | 981.8 |
| 20260506225535 | 4 | 131 | 0.0 | 1.6 | 0.20 | 0.58 | 0.56 | 69 | 981.9 |
| 20260506225035 | 3 | 120 | 0.0 | 1.6 | 0.18 | 0.56 | 0.53 | 69 | 982.0 |
| 20260506224535 | 3 | 195 | 0.0 | 1.6 | 0.20 | 0.56 | 0.53 | 67 | 982.0 |
| 20260506224035 | 3 | 39 | 0.0 | 1.6 | 0.18 | 0.53 | 0.51 | 70 | 982.0 |
| 20260506223536 | 3 | 85 | 0.0 | 1.6 | 0.18 | 0.53 | 0.51 | 69 | 982.0 |
| 20260506223036 | 3 | 143 | 0.0 | 1.6 | 0.18 | 0.51 | 0.48 | 71 | 982.0 |
| 20260506222535 | 2 | 212 | 0.0 | 3.2 | 0.20 | 0.51 | 0.48 | 72 | 982.1 |
| 20260506222039 | 3 | 204 | 1.6 | 4.8 | 0.18 | 0.46 | 0.46 | 67 | 982.1 |
| 20260506222035 | 2 | 218 | 1.6 | 4.8 | 0.18 | 0.48 | 0.46 | 68 | 982.1 |
| 20260506221641 | 3 | 153 | 0.0 | 3.2 | 0.18 | 0.46 | 0.43 | 71 | 982.2 |
| 20260506220535 | 2 | 248 | 0.0 | 3.2 | 0.18 | 0.43 | 0.41 | 75 | 982.4 |
| 20260506220036 | 2 | 328 | 0.0 | 3.2 | 0.15 | 0.41 | 0.38 | 75 | 982.4 |
| 20260506215535 | 1 | 251 | 0.0 | 6.4 | 0.15 | 0.38 | 0.36 | 76 | 982.4 |
| 20260506215138 | 1 | 302 | 0.0 | 6.4 | 0.15 | 0.38 | 0.36 | 77 | 982.5 |
| 20260506214636 | 1 | 257 | 0.0 | 3.2 | 0.13 | 0.36 | 0.36 | 77 | 982.6 |
| 20260506214137 | 1 | 236 | 0.0 | 4.8 | 0.15 | 0.36 | 0.33 | 75 | 982.6 |
| 20260506212527 | 1 | 345 | 0.0 | 3.2 | 0.13 | 0.30 | 0.30 | 72 | 982.8 |
| 20260506212027 | 1 | 318 | 0.0 | 3.2 | 0.13 | 0.33 | 0.28 | 74 | 982.7 |
| 20260506211527 | 1 | 324 | 0.0 | 1.6 | 0.13 | 0.30 | 0.25 | 74 | 982.8 |
| 20260506211027 | 2 | 340 | 0.0 | 4.8 | 0.13 | 0.30 | 0.25 | 71 | 982.8 |
| 20260506210527 | 2 | 15 | 0.0 | 4.8 | 0.10 | 0.28 | 0.23 | 73 | 982.8 |
| 20260506210027 | 2 | 328 | 0.0 | 4.8 | 0.13 | 0.28 | 0.23 | 71 | 982.8 |
| 20260506205529 | 2 | 91 | 0.0 | 3.2 | 0.13 | 0.25 | 0.20 | 73 | 982.8 |
| 20260506205525 | 2 | 332 | 0.0 | 3.2 | 0.10 | 0.25 | 0.20 | 72 | 982.8 |
| 20260506204525 | 2 | 354 | 0.0 | 1.6 | 0.13 | 0.25 | 0.20 | 76 | 982.8 |
| 20260506204025 | 2 | 323 | 0.0 | 3.2 | 0.10 | 0.23 | 0.18 | 75 | 982.8 |
| 20260506203525 | 2 | 1 | 0.0 | 4.8 | 0.10 | 0.23 | 0.18 | 78 | 982.8 |
| 20260506203025 | 1 | 349 | 1.6 | 4.8 | 0.10 | 0.20 | 0.15 | 77 | 983.0 |
| 20260506202525 | 1 | 21 | 1.6 | 8.0 | 0.10 | 0.20 | 0.15 | 80 | 983.0 |
| 20260506202027 | 1 | 4 | 1.6 | 8.0 | 0.10 | 0.20 | 0.15 | 79 | 983.1 |
| 20260506201527 | 1 | 349 | 0.0 | 4.8 | 0.08 | 0.18 | 0.13 | 79 | 983.1 |
| 20260506201026 | 1 | 330 | 0.0 | 4.8 | 0.10 | 0.18 | 0.13 | 78 | 983.1 |
| 20260506200523 | 1 | 313 | 0.0 | 6.4 | 0.10 | 0.18 | 0.13 | 79 | 983.1 |
| 20260506200023 | 1 | 151 | 0.0 | 6.4 | 0.08 | 0.15 | 0.10 | 81 | 983.1 |
| 20260506195521 | 1 | 304 | 1.6 | 6.4 | 0.08 | 0.15 | 0.10 | 80 | 983.1 |
| 20260506195021 | 1 | 346 | 1.6 | 6.4 | 0.08 | 0.13 | 0.08 | 79 | 983.0 |
| 20260506194521 | 1 | 312 | 1.6 | 8.0 | 0.08 | 0.13 | 0.08 | 78 | 983.0 |
| 20260506194022 | 1 | 343 | 1.6 | 8.0 | 0.08 | 0.13 | 0.08 | 81 | 983.1 |
| 20260506193521 | 1 | 335 | 1.6 | 9.7 | 0.08 | 0.13 | 0.08 | 84 | 983.0 |
| 20260506193021 | 0 | 6 | 3.2 | 9.7 | 0.05 | 0.10 | 0.08 | 83 | 983.0 |
| 20260506192521 | 1 | 333 | 1.6 | 9.7 | 0.05 | 0.10 | 0.05 | 83 | 983.0 |
| 20260506192021 | 1 | 27 | 1.6 | 9.7 | 0.05 | 0.10 | 0.05 | 83 | 983.1 |
| 20260506191519 | 1 | 332 | 0.0 | 9.7 | 0.05 | 0.13 | 0.05 | 85 | 982.8 |
| 20260506191019 | 1 | 352 | 0.0 | 0.0 | 0.03 | 0.10 | 0.03 | 87 | 983.0 |
| 20260506190520 | 0 | 2 | 0.0 | 1.6 | 0.03 | 0.10 | 0.03 | 88 | 983.0 |
| 20260506190019 | 0 | 30 | 0.0 | 1.6 | 0.03 | 0.10 | 0.03 | 88 | 983.1 |
| 20260506185523 | 0 | 332 | 0.0 | 0.0 | 0.00 | 0.08 | 0.00 | 88 | 983.1 |
| 20260506185519 | 0 | 347 | 0.0 | 0.0 | 0.03 | 0.10 | 0.03 | 87 | 983.0 |
| 20260506184519 | 0 | 358 | 0.0 | 0.0 | 0.00 | 0.08 | 0.00 | 88 | 983.1 |
| 20260506184019 | 0 | 35 | 0.0 | 0.0 | 0.00 | 0.10 | 0.00 | 87 | 983.1 |
| 20260506183519 | 0 | 340 | 0.0 | 0.0 | 0.00 | 0.10 | 0.00 | 87 | 983.2 |
| 20260506183019 | 0 | 321 | 0.0 | 0.0 | 0.00 | 0.10 | 0.00 | 89 | 983.1 |
| 20260506182517 | 0 | 338 | 0.0 | 0.0 | 0.00 | 0.10 | 0.00 | 90 | 983.1 |
| 20260506182017 | 0 | 341 | 0.0 | 0.0 | 0.00 | 0.10 | 0.00 | 90 | 983.1 |
| 20260506181521 | 0 | 12 | 0.0 | 0.0 | 0.00 | 0.10 | 0.00 | 91 | 983.2 |
| 20260506181518 | 0 | 323 | 0.0 | 0.0 | 0.00 | 0.10 | 0.00 | 91 | 983.1 |
| 20260506180517 | 0 | 330 | 0.0 | 0.0 | 0.00 | 0.10 | 0.00 | 91 | 983.1 |
| 20260506180022 | 0 | 321 | 0.0 | 0.0 | 0.00 | 0.10 | 0.00 | 92 | 983.0 |
| 20260506180017 | 0 | 338 | 0.0 | 0.0 | 0.00 | 0.10 | 0.00 | 91 | 983.1 |
| 20260506175517 | 0 | 330 | 0.0 | 0.0 | 0.00 | 0.10 | 0.00 | 91 | 983.0 |
| 20260506174517 | 0 | 1 | 0.0 | 0.0 | 0.00 | 0.10 | 0.00 | 91 | 983.0 |
| 20260506174024 | 0 | 331 | 0.0 | 0.0 | 0.00 | 0.10 | 0.00 | 93 | 983.0 |
| 20260506174017 | 0 | 316 | 0.0 | 0.0 | 0.00 | 0.10 | 0.00 | 92 | 983.0 |
| 20260506173517 | 0 | 323 | 0.0 | 0.0 | 0.00 | 0.10 | 0.00 | 93 | 983.0 |
| 20260506172518 | 0 | 10 | 0.0 | 0.0 | 0.00 | 0.10 | 0.00 | 93 | 983.0 |
| 20260506172018 | 0 | 6 | 0.0 | 0.0 | 0.00 | 0.10 | 0.00 | 94 | 982.8 |
| 20260506171517 | 0 | 329 | 0.0 | 0.0 | 0.00 | 0.10 | 0.00 | 93 | 982.8 |
| 20260506171021 | 0 | 23 | 0.0 | 0.0 | 0.00 | 0.13 | 0.00 | 94 | 982.5 |
| 20260506171017 | 0 | 37 | 0.0 | 0.0 | 0.00 | 0.10 | 0.00 | 94 | 982.7 |
| 20260506170516 | 0 | 323 | 0.0 | 0.0 | 0.00 | 0.13 | 0.00 | 94 | 982.5 |
| 20260506165517 | 0 | 350 | 0.0 | 0.0 | 0.00 | 0.13 | 0.00 | 95 | 982.1 |
| 20260506165015 | 0 | 324 | 0.0 | 0.0 | 0.00 | 0.13 | 0.00 | 96 | 982.2 |
| 20260506164515 | 0 | 34 | 0.0 | 0.0 | 0.00 | 0.13 | 0.00 | 96 | 982.4 |
| 20260506164015 | 0 | 321 | 0.0 | 0.0 | 0.00 | 0.13 | 0.00 | 96 | 982.2 |
| 20260506163515 | 0 | 27 | 0.0 | 0.0 | 0.00 | 0.13 | 0.00 | 96 | 982.4 |
| 20260506163020 | 0 | 350 | 0.0 | 0.0 | 0.00 | 0.13 | 0.00 | 96 | 982.2 |
| 20260506163016 | 0 | 326 | 0.0 | 0.0 | 0.00 | 0.13 | 0.00 | 96 | 982.4 |
| 20260506162620 | 0 | 331 | 0.0 | 0.0 | 0.00 | 0.13 | 0.00 | 96 | 982.2 |
| 20260506161517 | 0 | 348 | 0.0 | 0.0 | 0.00 | 0.13 | 0.00 | 96 | 982.1 |
| 20260506161513 | 0 | 1 | 0.0 | 0.0 | 0.00 | 0.13 | 0.00 | 96 | 982.1 |
| 20260506160512 | 0 | 6 | 0.0 | 0.0 | 0.00 | 0.13 | 0.00 | 96 | 982.1 |